Regional Weather Roundup
Issued by NWS

Home | Current Version | Previous Version | Text Only | Print | Product List | Glossary On
Versions: 1 2 3 4 5 6 7 8 9 10 11 12 13 14 15 16 17 18 19 20 21 22 23 24 25 26 27 28 29 30 31 32 33 34 35 36 37 38 39 40 41 42 43 44 45 46 47 48 49 50
050
ASUS43 KMPX 250010
RWRMN
WEATHER ROUNDUP FOR MINNESOTA
NATIONAL WEATHER SERVICE TWIN CITIES/CHANHASSEN MN
700 PM CDT MON JUL 24 2017


NOTE: "FAIR" INDICATES FEW OR NO CLOUDS BELOW 12,000 FEET WITH NO
SIGNIFICANT WEATHER AND/OR OBSTRUCTIONS TO VISIBILITY. N/A MEANS
CURRENT SKY AND/OR WEATHER CONDITIONS ARE NOT AVAILABLE.

MNZ060>063-068>070-250100-
   Twin Cities Metro

CITY           SKY/WX    TMP DP  RH WIND       PRES   REMARKS
TWIN CITIES    CLOUDY    76  60  57 SE9       30.03S
6HR MIN TEMP:  72; 6HR MAX TEMP:  79;

ST PAUL        CLOUDY    76  60  57 S8        30.02F
CRYSTAL        CLOUDY    75  57  53 S8        30.01F
BLAINE         PTSUNNY   79  61  53 S8        30.02F
LAKEVILLE      CLOUDY    73  61  64 SE5       30.03F
EDEN PRAIRIE   MOSUNNY   76  60  57 S10       30.02S
6HR MIN TEMP:  73; 6HR MAX TEMP:  80;

SOUTH ST PAUL  CLOUDY    76  58  54 SE5       30.03S
LAKE ELMO      FAIR      73  61  64 SE7       30.04F
$$
MNZ001>005-007-008-013>017-022>024-027-028-250100-
   Northwest Minnesota

CITY           SKY/WX    TMP DP  RH WIND       PRES   REMARKS
BEMIDJI        MOSUNNY   73  59  61 SE12      29.97F
HALLOCK        SUNNY     79  64  61 S17       29.85S
ROSEAU         SUNNY     79  64  61 S14       29.90S
WARROAD        SUNNY     79  66  65 S13       29.91S
THIEF RVR FALL MOSUNNY   77  62  59 S17       29.92S
CROOKSTON      MOSUNNY   77  63  61 S20       29.89F
FOSSTON        MOSUNNY   75  61  60 S10       29.94F
DETROIT LAKES  PTSUNNY   73  61  64 SE12      29.96F
MOORHEAD       CLOUDY    75  63  64 SE10G17   29.90F
PARK RAPIDS    MOSUNNY   75  61  61 S15       29.99F
MAHNOMEN       FAIR      73  61  65 S12       29.94F
$$
MNZ006-009>011-018-025>026-250100-
   North Central Minnesota

CITY           SKY/WX    TMP DP  RH WIND       PRES   REMARKS
BAUDETTE       SUNNY     78  59  51 S10       29.93S
FLAG ISLAND    SUNNY     75  64  69 S9        29.90S HAZE
INTL FALLS     SUNNY     77  52  41 S10       29.97R
6HR MIN TEMP:  76; 6HR MAX TEMP:  79;

WASKISH        PTSUNNY   75  59  57 S8        29.96F
BIG FORK       CLOUDY    73  57  56 S8        30.00S
LONGVILLE      CLOUDY    72  63  73 S10       30.02S
GRAND RAPIDS   CLOUDY    72  60  66 S5        30.04S
CRANE LAKE     SUNNY     75  52  43 SE3       30.01F
ORR            SUNNY     75  52  43 S7        29.98F
COOK           SUNNY     75  52  43 S5        30.02S
WALKER         FAIR      72  60  66 SE9       29.99F
$$
MNZ012-019>021-037-250100-
   Northeast Minnesota

CITY           SKY/WX    TMP DP  RH WIND       PRES   REMARKS
DULUTH         MOSUNNY   67  57  70 SE9       30.05S
6HR MIN TEMP:  67; 6HR MAX TEMP:  74;

ELY            SUNNY     73  48  40 S7        30.04S
HIBBING        CLOUDY    72  53  51 S7        30.03S
EVELETH        SUNNY     73  44  35 S10       30.04S
DULUTH HARBOR  SUNNY     64  59  82 NE5       30.05S
TWO HARBORS    SUNNY     73  59  60 E7        30.03S
SILVER BAY     SUNNY     72  52  49 E5        30.04S
GRAND MARAIS     N/A     60  57  89 SW3       30.04F
G MARAIS ARPRT SUNNY     66  48  52 S5        30.10S
$$
MNZ029>031-032-039>041-046>048-054>057-064-250100-
   West Central Minnesota

CITY           SKY/WX    TMP DP  RH WIND       PRES   REMARKS
FERGUS FALLS   CLOUDY    73  63  68 SE13      29.91F
WHEATON        DRIZZLE   70  63  78 SE14      29.92R
MORRIS         CLOUDY    73  63  68 SE9       29.94F
ALEXANDRIA     PTSUNNY   73  61  65 SE10      29.99F
ELBOW LAKE     LGT RAIN  70  64  80 SE16G25   29.92F
WADENA         PTSUNNY   72  63  73 SE10      29.98F
GLENWOOD       CLOUDY    73  63  68 SE7       29.99F
APPLETON       CLOUDY    75  61  60 E14G23    29.89F
BENSON         CLOUDY    75  63  64 SE9       29.97F
ORTONVILLE     CLOUDY    75  63  64 SE13G18   29.92S
MADISON        CLOUDY    79  64  61 SE17      29.91F
WILLMAR        FAIR      75  64  69 SE9       29.99F
$$
MNZ033>034-036-042>043-049>051-058-059-250100-
   Central Minnesota

CITY           SKY/WX    TMP DP  RH WIND       PRES   REMARKS
ST CLOUD       PTSUNNY   73  61  65 S9        30.03R
6HR MIN TEMP:  71; 6HR MAX TEMP:  78;

SAUK CENTRE    FAIR      72  62  71 SE8       30.00F
PAYNESVILLE    MOSUNNY   75  61  61 SE9       30.01F
AITKIN         CLOUDY    72  61  68 SE8       30.02S
PINE RIVER     CLOUDY    73  61  64 S8        30.04F
BRAINERD       MOSUNNY   72  61  68 SE6       30.03R
STAPLES        CLOUDY    72  61  68 SE9       30.01S
LONG PRAIRIE   FAIR      70  61  73 E6        30.01F
LITTLE FALLS   MOSUNNY   72  59  64 SE5       30.03S
LITCHFIELD     MOSUNNY   75  63  64 SE6       30.03S
BUFFALO        MOSUNNY   74  59  58 SE3       30.04S
MAPLE LAKE     MOSUNNY   75  63  66 SE3       30.05R
HUTCHINSON     SUNNY     74  63  67 SE5       30.04S
$$
MNZ037-044-045-052-053-250100-
   East Central Minnesota

CITY           SKY/WX    TMP DP  RH WIND       PRES   REMARKS
PRINCETON      PTSUNNY   75  61  60 SE6       30.04R
MORA           MOSUNNY   73  59  60 S6        30.05S
CAMBRIDGE      CLOUDY    79  61  53 S8        30.02S
RUSH CITY      CLOUDY    72  61  67 S3        30.04S
MOOSE LAKE     SUNNY     73  59  60 CALM      30.02S
HINCKLEY       FAIR      73  61  64 SE6       30.04S
CLOQUET        SUNNY     70  55  60 SE6       30.05S
MCGREGOR       CLOUDY    72  59  64 S6        30.04S
$$
MNZ071>073-080-081-089-090-097-098-250100-
   Southwest Minnesota

CITY           SKY/WX    TMP DP  RH WIND       PRES   REMARKS
MONTEVIDEO     MOSUNNY   75  63  64 S9        29.96F
GRANITE FALLS  MOSUNNY   78  64  63 E10       29.98F
CANBY          PTSUNNY   78  64  61 E15G21    29.94F
MARSHALL       MOSUNNY   77  65  66 SE14      29.97F
REDWOOD FALLS  MOSUNNY   76  62  62 SE9       29.99S
OLIVIA         MOSUNNY   73  61  64 SE12      29.99F
PIPESTONE      SUNNY     79  64  61 S12       29.96F
WINDOM         SUNNY     77  63  61 SE7       30.00S
WORTHINGTON    SUNNY     77  64  64 SE12      29.99S
JACKSON        SUNNY     77  61  57 SE6       30.01S
TRACY          MOSUNNY   78  66  67 SE8       29.99F
SLAYTON        MOSUNNY   76  63  64 SE10      30.00S HAZE
$$
MNZ065>067-074>077-082>085-091>093-250100-
   South Central Minnesota

CITY           SKY/WX    TMP DP  RH WIND       PRES   REMARKS
MANKATO        CLOUDY    75  62  64 SE9       30.03R
NEW ULM        MOSUNNY   75  61  60 SE7       30.02R
ST JAMES       SUNNY     75  63  64 SE9       30.02R
FAIRMONT       MOSUNNY   76  63  64 SE9       30.01S
GLENCOE        PTSUNNY   76  65  67 SE7       30.03R
FARIBAULT      MOSUNNY   73  61  64 SE9       30.04S
OWATONNA       MOSUNNY   75  63  64 SE10      30.04F
WASECA         MOSUNNY   72  61  68 SE6       30.04S
ALBERT LEA     MOSUNNY   73  61  64 SE8       30.04S
$$
MNZ078>079-086>088-094>096-250100-
   Southeast Minnesota

CITY           SKY/WX    TMP DP  RH WIND       PRES   REMARKS
ROCHESTER      PTSUNNY   71  61  70 SE10      30.06S
6HR MIN TEMP:  69; 6HR MAX TEMP:  73;

RED WING       SUNNY     75  55  50 SE9       30.04R
STANTON        MOSUNNY   76  61  59 SE5       30.02F
DODGE CENTER   MOSUNNY   73  61  64 S8        30.06S
WINONA         MOSUNNY   73  61  64 SE6       30.06S
AUSTIN         MOSUNNY   73  61  64 SE6       30.05S
PRESTON        MOSUNNY   71  59  66 S7        30.08R
$$
ABBREVIATIONS USED IN REMARKS
   TC - TEMPERATURES IN CELSIUS
  WCI - WIND CHILL INDEX
   HX - HEAT INDEX
  VSB - VISIBILITY
$$




USA.gov is the U.S. government's official web portal to all federal, state and local government web resources and services.